Weather History for Piney Island, NC

Change the Weather History Date:

Saturday, May 24, 2014

  Actual Average (KMRH) Record (KMRH)
Temperature  
Mean Temperature 72 °F -  
Max Temperature 77 °F 79 °F 87 °F (1992)
Min Temperature 66 °F 63 °F 45 °F (1961)
Cooling Degree Days 8    
Growing Degree Days 22 (Base 50)    
Moisture  
Dew Point 59 °F    
Average Humidity 67    
Maximum Humidity 93    
Minimum Humidity 43    
Precipitation  
Precipitation 0.00 in - - ()
Sea Level Pressure  
Sea Level Pressure 30.05 in    
Wind  
Wind Speed 10 mph (NE)    
Max Wind Speed 18 mph    
Max Gust Speed 26 mph    
Visibility 10 miles    
Events      
Averages and records for this station are not official NWS values.
T = Trace of Precipitation, MM = Missing Value Source: NWS Daily Summary

Daily Weather History Graph

Daily Weather History Graph

Search for Another Location

Airport:

Trip Planner

Search our weather history database for the weather conditions in past years. The results will help you decide how hot, cold, wet, or windy it might be!

Date:

Astronomy

May. 24, 2014 Rise Set
Actual Time 5:56 AM EDT 8:09 PM EDT
Civil Twilight 5:27 AM EDT 8:38 PM EDT
Nautical Twilight 4:52 AM EDT 9:13 PM EDT
Astronomical Twilight 4:14 AM EDT 9:51 PM EDT
Moon 3:13 AM EDT (5/24) 4:13 PM EDT (5/24)
Length of Visible Light 15h 10m
Length of Day
14h 12m
Waning Crescent, 18% of the Moon is Illuminated
May 24
Waning Crescent
May 28
New
Jun 5
First Quarter
Jun 13
Full
Jun 19
Last Quarter

Hourly Weather History & Observations

Time (EDT) Temp. Dew Point Humidity Pressure Visibility Wind Dir Wind Speed Gust Speed Precip Events Conditions
12:56 AM 71.1 °F 64.9 °F 81% 29.96 in 10.0 mi SE 6.9 mph - N/A   Clear
1:56 AM 71.1 °F 66.0 °F 84% 29.95 in 10.0 mi South 5.8 mph - N/A   Clear
2:56 AM 69.1 °F 66.0 °F 90% 29.94 in 10.0 mi WNW 3.5 mph - N/A   Clear
3:56 AM 71.1 °F 69.1 °F 93% 29.95 in 8.0 mi West 5.8 mph - N/A   Clear
4:48 AM 72.0 °F 68.0 °F 87% 29.95 in 10.0 mi North 13.8 mph - N/A   Mostly Cloudy
4:56 AM 71.1 °F 66.0 °F 84% 29.97 in 10.0 mi North 12.7 mph - N/A   Mostly Cloudy
5:03 AM 70.0 °F 64.0 °F 81% 29.96 in 10.0 mi North 12.7 mph - N/A   Mostly Cloudy
5:56 AM 71.1 °F 61.0 °F 70% 29.99 in 10.0 mi NNE 18.4 mph 24.2 mph N/A   Overcast
6:16 AM 70.0 °F 60.1 °F 71% 29.99 in 10.0 mi North 15.0 mph 21.9 mph N/A   Overcast
6:56 AM 70.0 °F 57.9 °F 65% 30.02 in 10.0 mi North 16.1 mph 23.0 mph N/A   Overcast
7:56 AM 70.0 °F 55.0 °F 59% 30.05 in 10.0 mi North 18.4 mph 26.5 mph N/A   Clear
8:56 AM 71.1 °F 54.0 °F 55% 30.08 in 10.0 mi North 17.3 mph 23.0 mph N/A   Clear
9:56 AM 71.1 °F 54.0 °F 55% 30.09 in 10.0 mi North 15.0 mph - N/A   Clear
10:56 AM 72.0 °F 53.1 °F 51% 30.09 in 10.0 mi North 13.8 mph - N/A   Clear
11:56 AM 73.0 °F 53.1 °F 49% 30.09 in 10.0 mi NNE 13.8 mph - N/A   Clear
12:56 PM 73.9 °F 52.0 °F 46% 30.09 in 10.0 mi NNE 10.4 mph - N/A   Clear
1:56 PM 77.0 °F 53.1 °F 43% 30.07 in 10.0 mi NNE 9.2 mph - N/A   Clear
2:56 PM 75.9 °F 52.0 °F 43% 30.06 in 10.0 mi ENE 9.2 mph - N/A   Clear
3:56 PM 75.0 °F 57.9 °F 55% 30.06 in 10.0 mi East 11.5 mph - N/A   Clear
4:56 PM 75.9 °F 57.0 °F 52% 30.06 in 10.0 mi ENE 8.1 mph - N/A   Clear
5:56 PM 73.9 °F 57.9 °F 57% 30.07 in 10.0 mi East 9.2 mph - N/A   Clear
6:56 PM 72.0 °F 61.0 °F 68% 30.08 in 10.0 mi ESE 12.7 mph - N/A   Clear
7:56 PM 70.0 °F 61.0 °F 73% 30.11 in 10.0 mi SSE 8.1 mph - N/A   Mostly Cloudy
8:26 PM 69.1 °F 60.1 °F 73% 30.10 in 10.0 mi ESE 8.1 mph - N/A   Scattered Clouds
8:56 PM 68.0 °F 60.1 °F 76% 30.12 in 10.0 mi ESE 6.9 mph - N/A   Clear
9:56 PM 68.0 °F 60.1 °F 76% 30.14 in 10.0 mi East 8.1 mph - N/A   Partly Cloudy
10:56 PM 68.0 °F 60.1 °F 76% 30.14 in 10.0 mi East 4.6 mph - N/A   Clear
11:56 PM 66.9 °F 59.0 °F 76% 30.14 in 10.0 mi SSE 4.6 mph - N/A   Clear